Voltar ao catálogo

STARLINK-31398

AtivoComunicaçõesVLEO
NORAD 59415·PAYLOAD·🇺🇸 United States

Lançado Apr 5, 2024 de Cape Canaveral Space Force Station

Loading…

Próximas Passagens (próximas 24 horas)

TLE

AtualizadoSource: CelesTrak SupGP

Época: Sep 15, 2026, 03:15 UTC

1 59415C 24064T   26258.13590278 -.00030500  00000+0 -11047-2 0  2580
2 59415  43.0004  66.1922 0001534 265.6746 326.4069 15.27593953    12

Acompanhe STARLINK-31398 em tempo real com AllMySat

Download on the App Store